WB4ME Weather Reports


Display with metric or nautical units.
time (UTC)temp
F
wind
direction
speed
MPH
gust
MPH
rain 1hr
in
rain 24hr
in
rain mn
in
humidity
%
barometer
mb
20260504082004 37 15 0.0 1.0 0.00 0.00 0.00 88 1027.3
20260504081004 36 89 0.0 0.0 0.00 0.00 0.00 88 1027.3
20260504045004 41 104 0.0 0.0 0.00 0.00 0.00 76 1027.3
20260504044004 41 104 0.0 0.0 0.00 0.00 0.00 75 1027.3
20260504043004 42 104 0.0 0.0 0.00 0.00 0.00 73 1027.3
20260504042005 42 106 0.0 1.0 0.00 0.00 0.00 72 1027.3
20260504040007 43 198 0.0 0.0 0.00 0.00 0.00 69 1027.3
20260504035005 44 198 0.0 0.0 0.00 0.00 0.00 68 1027.3
20260504033004 44 198 0.0 0.0 0.00 0.00 0.00 67 1027.3
20260504032004 45 198 0.0 0.0 0.00 0.00 0.00 65 1027.3
20260504031004 45 198 0.0 0.0 0.00 0.00 0.00 66 1027.3
20260504030004 45 198 0.0 0.0 0.00 0.00 0.00 65 1027.3
20260504025004 46 198 0.0 0.0 0.00 0.00 0.00 63 1027.3
20260504023004 46 198 0.0 0.0 0.00 0.00 0.00 62 1027.3
20260504020004 48 213 0.0 0.0 0.00 0.00 0.00 57 1027.3
20260504015004 49 206 0.0 0.0 0.00 0.00 0.00 57 1027.3
20260504014004 49 206 0.0 0.0 0.00 0.00 0.00 55 1027.3
20260504012003 50 204 0.0 0.0 0.00 0.00 0.00 53 1027.3
20260504010004 51 206 0.0 1.0 0.00 0.00 0.00 52 1027.3
20260504005004 52 167 0.0 3.0 0.00 0.00 0.00 51 1027.3
20260504004004 52 139 0.0 0.0 0.00 0.00 0.00 50 1027.3
20260504003004 53 197 0.0 1.0 0.00 0.00 0.00 48 1027.3
20260504002003 54 226 0.0 2.0 0.00 0.00 0.00 47 1027.3
20260504001005 54 215 2.0 5.0 0.00 0.00 0.00 46 1027.3
20260504000004 55 220 2.0 7.0 0.00 0.00 0.00 44 1027.3
20260503235004 55 226 1.0 4.0 0.00 0.00 0.00 44 1027.3
20260503233004 56 253 3.0 7.0 0.00 0.00 0.00 42 1027.3
20260503232004 56 226 3.0 11.0 0.00 0.00 0.00 40 1027.3
20260503231003 57 243 7.0 11.0 0.00 0.00 0.00 39 1027.3
20260503230004 57 230 11.0 11.0 0.00 0.00 0.00 37 1027.3
20260503225004 58 224 6.0 10.0 0.00 0.00 0.00 37 1027.3
20260503224005 58 218 4.0 12.0 0.00 0.00 0.00 36 1027.3
20260503223003 58 221 4.0 15.0 0.00 0.00 0.00 34 1027.3
20260503221003 58 223 10.0 13.0 0.00 0.00 0.00 36 1027.3
20260503220005 58 219 4.0 12.0 0.00 0.00 0.00 36 1027.3
20260503215004 58 242 5.0 11.0 0.00 0.00 0.00 36 1027.3
20260503214004 58 243 7.0 12.0 0.00 0.00 0.00 37 1027.3
20260503213004 58 188 4.0 11.0 0.00 0.00 0.00 37 1027.3
20260503212004 58 219 6.0 13.0 0.00 0.00 0.00 37 1027.3
20260503211003 58 226 11.0 12.0 0.00 0.00 0.00 37 1027.3
20260503210005 58 220 7.0 13.0 0.00 0.00 0.00 38 1027.3
20260503205004 58 210 9.0 12.0 0.00 0.00 0.00 38 1027.3
20260503204003 58 225 5.0 11.0 0.00 0.00 0.00 38 1027.3
20260503203003 58 227 6.0 14.0 0.00 0.00 0.00 39 1027.3
20260503202005 58 266 2.0 9.0 0.00 0.00 0.00 38 1027.3
20260503201003 58 207 7.0 14.0 0.00 0.00 0.00 39 1027.3
20260503200005 58 191 3.0 9.0 0.00 0.00 0.00 39 1027.3
20260503194004 57 169 5.0 12.0 0.00 0.00 0.00 35 1027.3
20260503193003 58 243 3.0 8.0 0.00 0.00 0.00 37 1027.3
20260503191006 58 134 8.0 11.0 0.00 0.00 0.00 39 1027.3
20260503190005 58 289 0.0 6.0 0.00 0.00 0.00 34 1027.3
20260503185004 57 231 1.0 11.0 0.00 0.00 0.00 33 1027.3
20260503184004 57 219 1.0 11.0 0.00 0.00 0.00 33 1027.3
20260503183004 57 15 0.0 4.0 0.00 0.00 0.00 35 1027.3
20260503182004 56 189 0.0 14.0 0.00 0.00 0.00 39 1027.3
20260503181004 57 252 4.0 9.0 0.00 0.00 0.00 36 1027.3
20260503180005 57 224 3.0 9.0 0.00 0.00 0.00 39 1027.3
20260503175004 55 129 0.0 6.0 0.00 0.00 0.00 41 1027.3
20260503174005 54 213 5.0 10.0 0.00 0.00 0.00 41 1027.3
20260503173004 54 223 5.0 9.0 0.00 0.00 0.00 37 1027.3
20260503172004 55 257 4.0 10.0 0.00 0.00 0.00 39 1027.3
20260503171004 54 252 0.0 7.0 0.00 0.00 0.00 37 1027.3
20260503151004 50 177 2.0 8.0 0.00 0.00 0.00 44 1027.3